Location: Casabianca
(42.4452°N, 9.3621°E)
Time: 21:53:00
(UTC+00:00)

Daily predictions for brighter satellites

Satellite Brightness Start Highest point End
(mag) Time Altitude Azimuth Time Altitude Azimuth Time Altitude Azimuth
NOSS 3-4 (A) 3.5 16:13:32 10° SSW 16:19:30 77° ESE 16:25:48 10° NE
NOSS 3-4 (C) 3.5 16:13:39 10° SSW 16:19:37 76° ESE 16:25:54 10° NE
USA 267 3.4 16:14:33 10° SE 16:21:07 83° SW 16:27:42 10° NW
SJ-7 4.5 16:18:18 10° SSE 16:22:31 81° ENE 16:26:43 10° N
Cosmos 2333 4.4 16:17:04 10° S 16:22:39 61° ESE 16:28:20 10° NNE
Cosmos 1346 Rocket 3.0 16:19:52 10° N 16:23:43 48° ENE 16:27:34 10° SSE
BREEZE-M DEB (TANK) 3.5 16:17:10 10° WNW 16:24:31 38° N 16:27:23 10° ENE
CZ-4B R/B 3.8 16:20:37 10° S 16:25:51 62° WSW 16:31:11 10° NNW
ATLAS 3B R/B 2.7 16:19:57 10° NNW 16:26:37 62° NE 16:33:25 10° SE
Cosmos 1400 Rocket 4.0 16:23:11 10° SSW 16:27:10 47° WNW 16:31:08 10° N
Cosmos 2322 3.7 16:22:36 10° SSW 16:28:18 80° ESE 16:34:01 10° NNE
Cosmos 371 Rocket 3.3 16:23:53 10° NNW 16:28:48 83° ENE 16:33:41 10° SSE
Iridium 82 4.4 16:26:48 10° S 16:30:22 79° E 16:33:54 10° N
Cosmos 1733 Rocket 4.0 16:27:12 10° NNE 16:30:55 26° ENE 16:34:37 10° SE
Atlas Centaur 2 4.3 16:24:49 10° WSW 16:31:40 35° S 16:39:07 10° ESE
Cosmos 1269 Rocket 4.1 16:27:57 10° SSW 16:33:16 86° ESE 16:38:37 10° NNE
CZ-4B R/B 4.2 16:33:23 10° NNW 16:35:50 18° WNW 16:38:15 10° WSW
Cosmos 1869 Rocket 3.7 16:31:28 10° N 16:35:53 84° W 16:40:19 10° S
YAOGAN 6 4.1 16:34:15 10° ESE 16:36:26 16° ENE 16:38:38 10° NNE
IRS-1C Rocket 4.1 16:34:05 10° SSE 16:39:20 77° ENE 16:44:38 10° N
Cosmos 494 Rocket 4.4 16:34:38 10° SSW 16:39:53 69° WNW 16:45:09 10° NNE
RESURS DK-1 3.1 16:36:22 10° S 16:40:05 34° ESE 16:43:38 11° NE
ISS -2.0 16:39:11 10° NW 16:41:42 19° N 16:43:34 13° NE
Cosmos 2278 Rocket 3.0 16:37:33 10° N 16:42:21 28° NE 16:47:09 10° ESE
Meteor 1-11 Rocket 4.3 16:37:12 10° N 16:42:47 39° ENE 16:48:19 10° SE
Okean O Rocket 3.5 16:41:58 10° SSW 16:45:56 34° W 16:49:55 10° NNW
COBE Rocket 3.7 16:41:40 10° NNE 16:46:18 66° E 16:50:56 10° S
Meteor 1-27 Rocket 4.2 16:44:00 10° SSE 16:49:11 39° E 16:54:31 10° NNE
Cosmos 2360 Rocket 3.3 16:44:16 10° SW 16:49:38 42° WNW 16:55:02 10° NNE
ATLAS 5 CENTAUR R/B 1.8 16:47:49 10° SSW 16:50:29 30° SE 16:51:26 20° E
SKYMED 2 4.5 16:47:27 10° NE 16:51:13 28° E 16:54:57 10° SSE
Cosmos 2333 Rocket 2.2 16:47:37 10° SSW 16:53:19 76° ESE 16:59:05 10° NNE
Okean-O 2.7 16:50:25 10° SSE 16:54:42 53° ENE 16:59:02 10° N
AQUARIUS 4.2 16:52:06 10° SSE 16:56:35 89° WSW 17:01:07 10° NNW
Cosmos 2251 Rocket 4.0 16:51:56 10° S 16:56:51 39° ESE 17:01:20 12° NE
ATLAS 2AS CENTAUR R/B 3.7 16:49:34 10° SW 16:57:21 54° NW 17:05:11 10° NNE
Feng Yun 1-1 Rocket 4.3 16:52:25 10° SSE 16:57:50 82° WSW 17:03:15 10° NNW
NOSS 0 Rocket 4.4 16:53:41 10° S 16:59:28 42° ESE 17:04:37 13° NE
BREEZE-M R/B 4.1 16:53:45 10° W 16:59:29 37° NNW 17:01:47 18° NE
Cosmos 1302 Rocket 3.9 16:54:33 10° NNW 16:59:51 77° ENE 17:05:05 10° SSE
Cosmos 1862 Rocket 3.7 16:59:21 10° S 17:03:31 51° E 17:07:45 10° NNE
Cosmos 2279 Rocket 4.2 16:58:27 10° N 17:04:43 78° W 17:10:57 10° S
Cosmos 44 Rocket 4.2 17:02:23 10° NW 17:06:55 49° WSW 17:11:27 10° SSE
CZ-4 R/B 2.0 17:04:40 10° SE 17:08:11 31° ENE 17:11:40 10° N
Cosmos 2237 Rocket 2.8 17:03:05 10° S 17:08:15 37° ESE 17:11:43 19° NE
Exosat Rocket 3.6 17:04:31 10° S 17:10:11 63° ESE 17:14:31 14° NNE
Cosmos 1812 2.6 17:07:50 10° S 17:11:39 65° E 17:15:30 10° NNE
SL-8 R/B 3.8 17:09:33 10° WNW 17:14:24 80° SSW 17:18:40 13° SE
Cosmos 1536 3.2 17:10:49 10° N 17:14:37 40° ENE 17:18:24 10° SSE
SeaSat 1 4.2 17:17:12 15° NNE 17:17:12 15° NNE 17:18:59 10° N
CZ-4 R/B 4.5 17:18:51 10° SSE 17:22:53 53° ENE 17:26:57 10° N
Nadezhda 4 Rocket 3.9 17:17:21 10° S 17:23:40 79° E 17:30:01 10° N
Envisat 3.0 17:22:32 10° SSE 17:27:37 83° WSW 17:32:44 10° NNW
Cosmos 2219 Rocket 2.7 17:22:59 10° SW 17:28:31 59° WNW 17:34:06 10° NNE
Lacrosse 5 rocket 1.3 17:26:15 10° SW 17:30:33 76° SE 17:31:54 41° ENE
ERBS 2.5 17:34:27 10° NW 17:37:46 66° SW 17:38:53 37° SSE
Cosmos 1980 3.6 17:32:19 10° SSW 17:37:54 69° ESE 17:41:05 27° NE
COSMO-SKYMED 1 2.5 17:35:38 14° NNE 17:39:20 86° WNW 17:43:40 10° SSW
CENTAUR R/B 4.3 17:31:40 10° NW 17:39:23 46° WSW 17:47:32 10° S
Cosmos 1908 Rocket 3.5 17:35:45 10° N 17:40:06 56° E 17:44:24 10° SSE
SL-4 R/B 2.6 17:38:19 10° W 17:41:57 44° NNW 17:42:51 37° NNE
Cosmos 1500 3.9 17:39:04 10° NNW 17:42:46 53° W 17:46:24 10° S
STARLINK-46 3.8 17:42:50 10° WSW 17:44:58 39° WNW 17:44:58 39° WNW
COSMOS 2428 3.7 17:40:29 10° SW 17:45:53 45° WNW 17:51:04 11° NNE
Shenzhou-11 Module 3.0 17:43:45 10° W 17:45:40 40° W 17:45:40 40° W
Cosmos 2026 Rocket 4.0 17:41:01 10° SSE 17:46:53 53° E 17:50:36 22° NNE
Cosmos 1992 Rocket 3.8 17:42:56 10° NNW 17:48:11 78° ENE 17:53:24 10° SSE
YAOGAN 1 2.4 17:44:09 10° SSE 17:48:27 73° ENE 17:52:47 10° N
FengYun 1-2 T 4.4 17:47:30 10° S 17:52:57 70° WSW 17:58:27 10° NNW
CSL-04 Rocket 3.4 17:49:05 10° SSE 17:54:22 81° ENE 17:59:40 10° NNW
Cosmos 292 Rocket 4.5 17:51:05 10° N 17:54:26 38° NNE 17:54:26 38° NNE
USA 116 4.5 17:58:58 18° N 18:03:05 81° WNW 18:08:18 10° SSW
CSL-04 Debris 4.2 17:58:29 10° SSE 18:03:57 83° WSW 18:09:26 10° NNW
Cosmos 1627 Rocket 4.3 17:59:35 10° S 18:05:41 80° E 18:10:30 17° N
OAO 2 Rocket 4.5 18:01:30 10° SW 18:05:54 30° SSE 18:06:13 30° SSE
YAOGAN 6 4.4 18:06:31 10° SSW 18:09:40 31° W 18:12:52 10° NNW
Okean 1-7 4.0 18:11:33 10° S 18:14:17 39° S 18:14:17 39° S
DMSP B5D1-3 4.4 18:16:20 78° NNE 18:16:42 89° ESE 18:21:49 10° SSW
BREEZE-M DEB (TANK) 3.7 18:13:35 10° WNW 18:15:46 29° NW 18:15:46 29° NW
RESURS DK-1 4.5 18:14:54 10° WSW 18:18:11 23° NW 18:19:34 19° NNW
ISS -1.1 18:15:39 10° NW 18:16:29 16° NW 18:16:29 16° NW
Atlas Centaur 2 4.4 18:13:43 10° WSW 18:20:37 30° SSW 18:25:04 19° SSE
NOAA 11 4.2 18:15:49 10° S 18:21:15 79° WSW 18:26:45 10° NNW
Cosmos 2278 Rocket 3.1 18:21:15 10° NW 18:26:40 47° WSW 18:32:01 10° S
SL-16 R/B 3.1 18:32:04 10° SSW 18:35:32 39° S 18:35:32 39° S
Cosmos 2333 Rocket 4.4 18:34:09 10° W 18:38:14 20° NW 18:41:54 12° N
CZ-4 R/B 4.0 18:40:24 10° SW 18:43:16 19° W 18:46:07 10° NW
Cosmos 2237 Rocket 3.6 18:47:08 10° WSW 18:52:18 34° WNW 18:53:36 31° NNW
Lacrosse 5 rocket 4.4 19:06:51 10° W 19:07:34 13° WNW 19:07:34 13° WNW
